Time,TemperatureF,DewpointF,PressureIn,WindDirection,WindDirectionDegrees,WindSpeedMPH,WindSpeedGustMPH,Humidity,HourlyPrecipIn,Conditions,Clouds,dailyrainin,SoftwareType,DateUTC
2013-01-13 00:03:00,63.0,61.0,29.75,South,170,21.0,27.0,93,-99.99,,,-99.99,,2013-01-13 05:03:00,
2013-01-13 00:12:00,63.0,61.0,29.75,South,180,22.0,30.0,93,-99.99,,,-99.99,,2013-01-13 05:12:00,
2013-01-13 00:22:00,63.0,61.0,29.75,South,180,20.0,29.0,93,-99.99,,,-99.99,,2013-01-13 05:22:00,
2013-01-13 00:32:00,63.0,61.0,29.74,South,180,22.0,29.0,93,-99.99,,,-99.99,,2013-01-13 05:32:00,
2013-01-13 00:42:00,63.0,61.0,29.74,South,180,21.0,29.0,93,-99.99,,,-99.99,,2013-01-13 05:42:00,
2013-01-13 00:52:00,64.0,61.0,29.73,South,180,22.0,30.0,88,-99.99,,,-99.99,,2013-01-13 05:52:00,
2013-01-13 01:03:00,64.0,61.0,29.73,South,180,18.0,30.0,88,-99.99,,,-99.99,,2013-01-13 06:03:00,
2013-01-13 01:12:00,64.0,61.0,29.72,South,180,18.0,29.0,88,-99.99,,,-99.99,,2013-01-13 06:12:00,
2013-01-13 01:22:00,64.0,61.0,29.72,South,170,18.0,24.0,88,-99.99,,,-99.99,,2013-01-13 06:22:00,
2013-01-13 01:32:00,64.0,61.0,29.72,South,180,16.0,25.0,88,-99.99,,,-99.99,,2013-01-13 06:32:00,
2013-01-13 01:42:00,64.0,61.0,29.72,South,180,18.0,25.0,88,-99.99,,,-99.99,,2013-01-13 06:42:00,
2013-01-13 01:52:00,64.0,61.0,29.71,South,180,17.0,24.0,88,-99.99,,,-99.99,,2013-01-13 06:52:00,
2013-01-13 02:02:00,64.0,61.0,29.71,South,180,20.0,24.0,88,-99.99,,,-99.99,,2013-01-13 07:02:00,
2013-01-13 02:12:00,63.0,61.0,29.71,South,180,16.0,24.0,93,-99.99,,,-99.99,,2013-01-13 07:12:00,
2013-01-13 02:22:00,63.0,61.0,29.71,South,180,17.0,24.0,93,-99.99,,,-99.99,,2013-01-13 07:22:00,
2013-01-13 02:32:00,63.0,61.0,29.71,South,180,16.0,-999.0,93,-99.99,,,-99.99,,2013-01-13 07:32:00,
2013-01-13 02:42:00,63.0,61.0,29.71,South,190,18.0,23.0,93,-99.99,,,-99.99,,2013-01-13 07:42:00,
2013-01-13 02:52:00,63.0,61.0,29.70,South,170,15.0,20.0,93,-99.99,,,-99.99,,2013-01-13 07:52:00,
2013-01-13 03:02:00,63.0,61.0,29.70,South,170,13.0,20.0,93,-99.99,,,-99.99,,2013-01-13 08:02:00,
2013-01-13 03:12:00,63.0,61.0,29.69,South,170,15.0,20.0,93,-99.99,,,-99.99,,2013-01-13 08:12:00,
2013-01-13 03:22:00,63.0,59.0,29.68,South,170,14.0,20.0,88,-99.99,,,-99.99,,2013-01-13 08:22:00,
2013-01-13 03:32:00,63.0,59.0,29.68,South,170,15.0,23.0,88,-99.99,,,-99.99,,2013-01-13 08:32:00,
2013-01-13 03:42:00,63.0,59.0,29.68,South,170,17.0,23.0,88,-99.99,,,-99.99,,2013-01-13 08:42:00,
2013-01-13 03:52:00,63.0,59.0,29.68,South,180,18.0,24.0,88,-99.99,,,-99.99,,2013-01-13 08:52:00,
2013-01-13 04:02:00,63.0,59.0,29.68,South,180,18.0,24.0,88,-99.99,,,-99.99,,2013-01-13 09:02:00,
2013-01-13 04:12:00,63.0,59.0,29.68,South,180,18.0,24.0,88,-99.99,,,-99.99,,2013-01-13 09:12:00,
2013-01-13 04:22:00,63.0,59.0,29.68,South,180,18.0,24.0,88,-99.99,,,-99.99,,2013-01-13 09:22:00,